Hourly Data Report for July 06, 2021

RANKIN INLET A
NUNAVUT
Current Station Operator: NAVCAN

62°48'38.000" N
92°06'53.000" W
32.30 m
2303405
71083
YRT

Download Data

Hourly Data (July 2021)
Hourly Data Report for July 6, 2021
TIME
LST
Temp Definition
°C
Dew Point Definition
°C
Rel Hum Definition
%
Precip. Amount Definition
mm

Wind Dir Definition
10's deg

Wind Spd Definition
km/h
Visibility Definition
km
Stn Press Definition
kPa
Hmdx Definition


Wind Chill Definition


Weather Definition


00:00 8.2 3.8 74   29 21 24.1 101.88     Mostly Cloudy
01:00 7.4 3.6 77   29 19 24.1 101.86     LegendNANA
02:00 6.9 3.3 78   28 17 24.1 101.85     LegendNANA
03:00 6.5 3.4 80   28 17 24.1 101.81     Mainly Clear
04:00 6.7 3.5 80   28 16 24.1 101.82     LegendNANA
05:00 8.0 4.2 77   29 16 24.1 101.80     LegendNANA
06:00 11.3 4.3 62   30 21 24.1 101.77     Mostly Cloudy
07:00 11.9 3.8 57   30 23 24.1 101.76     LegendNANA
08:00 13.5 3.4 50   30 23 48.3 101.69     LegendNANA
09:00 14.4 3.6 48   26 19 48.3 101.63     Mainly Clear
10:00 15.5 3.1 43   27 23 48.3 101.57     LegendNANA
11:00 15.8 3.0 42   25 19 24.1 101.50     LegendNANA
12:00 14.8 2.8 44   23 16 24.1 101.43     Mainly Clear
13:00 16.2 1.8 38   24 25 48.3 101.37     LegendNANA
14:00 15.8 2.5 41   24 22 48.3 101.29     LegendNANA
15:00 14.3 3.4 48   20 24 48.3 101.21     Mostly Cloudy
16:00 12.8 4.2 56   20 30 48.3 101.13     LegendNANA
17:00 11.2 4.1 62   21 30 24.1 101.07     Rain
18:00 9.4 3.9 68   20 22 24.1 100.99     Rain
19:00 7.8 4.8 81   20 27 16.1 100.88     Rain
20:00 7.0 4.3 83   19 21 24.1 100.76     LegendNANA
21:00 6.8 4.6 86   19 17 24.1 100.68     Mostly Cloudy
22:00 7.3 5.8 90   22 9 24.1 100.61     LegendNANA
23:00 10.4 8.2 86   27 18 24.1 100.55     LegendNANA

Notes on Data Quality.

Legend

  • E = Estimated
  • M = Missing
  • NA = Not Available*
  • [empty] = Indicates an unobserved value
Date modified: